www.pogodaiklimat.ru

Погода и климат >> Архив погоды >> Канада >> Cambridge Bay Gsn


ПОГОДА в Cambridge Bay Gsn

  • Прогноз погоды в Cambridge Bay Gsn
  • Монитор погоды в Cambridge Bay Gsn
  • Климат города

АРХИВ ПОГОДЫ в Cambridge Bay Gsn

Время (UTC), дата Ветер
(напр.,м/с)
 
Видим.   Явления Облачность Т
(С)
Тd
(С)
f
(%)
Тe
(С)
Тes
(С)
Комфортность P
(гПа)
Po
(гПа)
Тmin
(С)
Tmax
(С)
R
(мм)
R24
(мм)
S
(см)
06 13.06 СВ 8 н/о н/о +0.6 +0.4 99 -7 -7 1015.4 1013.0 +0.5 +1.9 11
09 13.06 СВ 7 н/о н/о +0.5 +0.3 99 -7 -7 1015.3 1012.9
12 13.06 СВ 6 н/о н/о +0.9 +0.7 99 -6 -6 1015.8 1013.4 +0.5 +1.9
15 13.06 В 4 н/о н/о +1.4 +1.2 99 -4 -4 1016.5 1014.1
18 13.06 СВ 4 н/о н/о +3.9 +3.0 94 -1 -1 1016.9 1014.5 +0.5 +3.9
21 13.06 В 3 н/о н/о +6.0 +3.3 83 +3 +3 1017.6 1015.2
00 14.06 В 5 н/о н/о +3.7 +3.2 97 -1 -1 1017.8 1015.4 +0.5 +6.6
03 14.06 В 5 н/о н/о +2.3 +2.1 99 -4 -4 1017.7 1015.3
06 14.06 В 5 н/о н/о +1.1 +0.9 99 -5 -5 1016.8 1014.4 +0.5 +6.6 10
09 14.06 В 5 н/о н/о +1.5 +1.4 99 -4 -4 1016.4 1014.0
12 14.06 В 4 н/о н/о +3.2 +2.2 93 -1 -1 1015.6 1013.2 +1.0 +6.6
15 14.06 В 5 н/о н/о +4.2 +2.8 91 -1 -1 1014.9 1012.5
18 14.06 В 5 н/о н/о +5.4 +2.9 84 +1 +1 1014.7 1012.3 +1.0 +6.2
21 14.06 В 5 н/о н/о +7.3 +3.6 77 +4 +4 1014.0 1011.6
00 15.06 ЮВ 7 н/о н/о +7.2 +3.5 77 +3 +3 1012.8 1010.4 +1.0 +8.0
03 15.06 ЮВ 5 н/о н/о +4.7 +2.0 83 -0 -0 1012.2 1009.8
06 15.06 ЮВ 4 н/о н/о +2.8 +1.0 88 -2 -2 1011.8 1009.4 +1.0 +8.0
09 15.06 ЮВ 5 н/о н/о +3.5 +1.2 85 -2 -2 1011.0 1008.6
12 15.06 ЮВ 5 н/о н/о +4.4 +1.8 83 -0 -0 1010.2 1007.8 +2.2 +8.0
15 15.06 В 3 н/о н/о +4.7 +2.0 83 +1 +1 1009.9 1007.5
18 15.06 ЮВ 5 н/о н/о +7.9 +4.0 76 +4 +4 1009.0 1006.6 +2.2 +7.9
21 15.06 ЮВ 6 н/о н/о +7.1 +3.4 77 +3 +3 1008.1 1005.7
00 16.06 В 2 н/о н/о +8.0 +3.4 73 +7 +7 1008.0 1005.6 +2.2 +8.9
03 16.06 ЮЗ 1 н/о н/о +7.1 +3.6 78 +7 +7 1007.2 1004.8
06 16.06 З 2 н/о н/о +5.3 +3.6 89 +3 +3 1007.0 1004.6 +2.2 +8.9
09 16.06 З 4 н/о н/о +3.5 +2.0 90 -1 -1 1007.2 1004.8
12 16.06 З 4 н/о н/о +4.4 +2.8 89 0 0 1007.2 1004.8 +2.6 +8.9
15 16.06 З 3 н/о н/о +4.6 +3.4 92 +1 +1 1007.9 1005.5
18 16.06 З 5 н/о н/о +6.3 +3.9 85 +2 +2 1009.0 1006.6 +2.6 +6.4
21 16.06 ЮЗ 3 н/о н/о +5.6 +3.3 85 +3 +3 1008.1 1005.7
00 17.06 Ю 3 н/о н/о +7.3 +5.2 87 +5 +5 1006.6 1004.2 +2.6 +7.3
03 17.06 СВ 5 н/о н/о +5.0 +3.5 90 0 0 1004.2 1001.8
06 17.06 СВ 3 н/о н/о +4.4 +3.6 95 +1 +1 1002.2 999.8 +2.6 +7.9 18
09 17.06 С 5 н/о н/о +3.2 +2.7 97 -2 -2 1003.2 1000.8 0.3
12 17.06 СЗ 8 н/о н/о +1.7 +0.9 94 -5 -5 1005.0 1002.6 +1.7 +7.9 0.3
15 17.06 СЗ 6 н/о н/о +2.1 -0.9 81 -4 -4 1006.2 1003.8
18 17.06 СЗ 9 н/о н/о +2.3 -0.6 81 -5 -5 1007.4 1005.0 +0.9 +4.7
21 17.06 СЗ 10 н/о н/о +3.6 -0.6 74 -3 -3 1008.5 1006.1
00 18.06 СЗ 8 н/о н/о +4.4 -0.7 69 -1 -1 1009.6 1007.2 +0.9 +4.5
03 18.06 З 5 н/о н/о +3.1 +0.5 83 -2 -2 1010.3 1007.9
06 18.06 СЗ 5 н/о н/о +2.7 +0.4 85 -3 -3 1010.8 1008.4 +0.9 +4.9 21
09 18.06 З 5 н/о н/о +1.4 +0.3 92 -4 -4 1011.3 1008.9
12 18.06 СЗ 6 н/о н/о +1.8 0.0 88 -4 -4 1012.2 1009.8 +1.4 +4.9
15 18.06 СЗ 8 н/о н/о +2.2 +0.3 87 -5 -5 1012.9 1010.5
18 18.06 СЗ 7 н/о н/о +4.1 +0.6 78 -2 -2 1013.7 1011.3 +1.4 +4.5
21 18.06 СЗ 7 н/о н/о +4.9 +0.9 75 -0 -0 1014.4 1012.0
00 19.06 З 4 н/о н/о +4.0 +1.5 84 -1 -1 1014.6 1012.2 +1.4 +5.8
03 19.06 З 4 н/о н/о +3.4 +0.4 81 -1 -1 1014.3 1011.9
06 19.06 З 3 н/о н/о +1.1 -0.2 91 -3 -3 1014.3 1011.9 +1.1 +5.8 21
09 19.06 ЮЗ 2 н/о н/о +0.3 -0.7 93 -3 -3 1013.8 1011.4
12 19.06 В 2 н/о {осадки} н/о +2.4 +0.4 87 -1 -1 1012.7 1010.3 +0.3 +5.8 0.2
15 19.06 ЮВ 6 н/о н/о +5.8 +2.1 77 +1 +1 1011.2 1008.8
18 19.06 ЮВ 6 н/о н/о +8.3 +3.8 73 +4 +4 1009.5 1007.1 +0.3 +8.5
21 19.06 ЮВ 6 н/о н/о +7.8 +3.6 75 +4 +4 1007.9 1005.5
00 20.06 ЮВ 6 н/о н/о +7.0 +3.1 76 +3 +3 1006.0 1003.6 +0.3 +9.5

 

Местоположение метеостанции Cambridge Bay Gsn (Канада): широта 69.10 долгота -105.10 высота над уровнем моря 19 м.

В архиве по умолчанию представлена погода в Cambridge Bay Gsn за последнюю неделю. Архивные данные за месяц целиком и за предыдущие месяцы, начиная с января 2011 года, Вы можете получить, выбрав интересующий диапазон дат из раскрывающегося списка и нажав кнопку "Ввод!".


*Определитесь, кто Вы:
робот инопланетянин человек

Внимание! Время в таблицах - всемирное. Для получения местного времени необходимо прибавить поправку, которая в Cambridge Bay Gsn равна -7 ч.

Смотрите также архив погоды в соседних городах и на ближайших метеорологических станциях:

Погода в Cape Peel West (Канада) (108 км)
Погода в Hat Island (Канада) (223 км)
Погода в Gjoa Haven Climate (Канада) (374 км)
Погода в Kugluktuk (Канада) (432 км)
Погода в Kugluktuk Airport (Канада) (432 км)
Погода в Lupin (Канада) (452 км)
Погода в Lupin (maps) (Канада) (452 км)
Погода в Spence bay (Канада) (454 км)
Погода в Robertson Lake (Канада) (460 км)
Погода в Shepherd Bay (Канада) (466 км)

Пояснения к столбцам:

Ветер - указаны скорость ветра в м/с - средняя за 10 мин, порывы в срок и между сроками (в фигурных скобках) и направление, откуда дует ветер: С - северный, СВ - северо-восточный, В - восточный, ЮВ - юго-восточный, Ю - южный, ЮЗ - юго-западный, З - западный, СЗ - северо-западный.
Видимость - горизонтальная дальность видимости в метрах или километрах. При видимости от 1 до 10 км при отсутствии осадков обычно наблюдается дымка, при ухудшении видимости до 1 км и менее - туман. В сухую погоду видимость может ухудшаться дымом, пылью или мглою.
Явления - указаны атмосферные явления, наблюдавшиеся в срок или в последний час перед сроком; фигурными скобками обозначены явления, наблюдавшиеся между сроками (за 1-3 часа до срока); квадратными скобками обозначены град или гололедные отложения с указанием их диаметра в мм.
Облачность - указаны через наклонную черту общая и нижняя облачность в баллах и высота нижней границы облаков в метрах; квадратными скобками обозначены формы облаков: Ci - перистые, Cs - перисто-слоистые, Cc - перисто-кучевые, Ac - высококучевые, As - высокослоистые, Sc - слоисто-кучевые, Ns - слоисто-дождевые, Cu - кучевые, Cb - кучево-дождевые. Подробнее классификацию облаков см. в Атласе облаков (PDF).
T - Температура воздуха - температура, измеренная на высоте 2 м над землей.
Td - Температура точки росы - температура, при понижении до которой содержащийся в воздухе водяной пар достигнет насыщения.
f - Относительная влажность воздуха - влажноcть воздуха, измеренная на высоте 2 м над землей.
Te - Эффективная температура - температура, которую ощущает одетый по сезону человек в тени. Характеристика душности погоды. При расчете учитывается влияние влажности воздуха и скорости ветра на теплоощущения человека.
Tes - Эффективная температура на солнце - температура, которую ощущает человек, с поправкой на солнечный нагрев. Характеристика знойности погоды. Зависит от высоты солнца над горизонтом, облачности и скорости ветра. Ночью, в пасмурную погоду, а также при ветре 12 м/с и более поправка равна нулю.
P - Атмосферное давление - приведенное к уровню моря атмосферное давление.
Po - Атмосферное давление - измеренное на уровне метеостанции атмосферное давление.
Tmin - Минимальная температура - минимум температуры воздуха на высоте 2 м над землей.
Tmax - Максимальная температура - максимум температуры воздуха на высоте 2 м над землей.
R - Количество осадков - Количество выпавших осадков за период времени, мм. При наведении курсора мыши на число - период времени, за который выпало указанное количество осадков.
R24 - Количество осадков - Количество выпавших осадков за 24 часа, мм.
S - Снежный покров - Высота снежного покрова, см. При наведении курсора мыши на число - состояние снежного покрова и степень покрытия местности в баллах.